Date,TemperatureHighF,TemperatureAvgF,TemperatureLowF,DewpointHighF,DewpointAvgF,DewpointLowF,HumidityHigh,HumidityAvg,HumidityLow,PressureMaxIn,PressureMinIn,WindSpeedMaxMPH,WindSpeedAvgMPH,GustSpeedMaxMPH,PrecipitationSumIn
2013-1-1,42,39,31,23,20,10,56,46,40,0.00,40.00,8,4,19,0.00
2013-1-2,35,28,24,10,8,5,52,42,34,0.00,40.00,11,3,21,0.00
2013-1-3,34,28,21,14,10,8,67,49,35,0.00,40.00,7,1,15,0.00
2013-1-4,37,32,25,18,16,14,67,52,41,0.00,40.00,10,2,25,0.00
2013-1-5,42,33,29,19,14,-100,62,47,34,0.00,40.00,9,3,20,0.00
2013-1-6,46,36,31,36,25,19,94,67,36,0.00,40.00,6,1,14,0.00
2013-1-7,47,36,26,28,21,14,83,59,29,0.00,40.00,9,2,18,0.00
2013-1-8,50,34,23,31,24,21,94,73,36,0.00,40.00,4,1,12,0.00
2013-1-9,53,41,29,36,31,26,93,69,41,0.00,40.00,9,1,18,0.00
2013-1-10,50,43,35,28,20,16,60,40,28,0.00,40.00,9,4,21,0.00
2013-1-11,49,41,32,45,34,22,94,75,58,0.00,40.00,4,1,11,0.00
2013-1-12,49,46,45,46,44,43,94,93,88,0.00,40.00,6,2,12,0.00
2013-1-13,55,48,42,49,45,40,94,89,66,0.00,40.00,4,1,13,0.00
2013-1-14,59,53,44,56,46,-100,94,80,30,0.00,40.00,8,3,18,0.00
2013-1-15,42,39,37,37,25,20,91,59,45,0.00,40.00,7,1,17,0.00
2013-1-16,39,36,34,38,35,31,95,94,80,0.00,40.00,8,1,20,0.00
2013-1-17,44,39,37,36,28,19,95,66,39,0.00,40.00,7,2,16,0.00
2013-1-18,38,30,24,25,8,-3,60,40,24,0.00,40.00,16,4,30,0.00
2013-1-19,53,38,24,21,16,7,57,42,23,0.00,40.00,6,2,17,0.00
2013-1-20,56,44,33,23,17,5,50,36,19,0.00,40.00,11,4,28,0.00
2013-1-21,34,30,25,24,10,3,87,45,30,0.00,40.00,6,2,13,0.00
2013-1-22,25,19,14,22,-4,-12,86,35,25,0.00,40.00,13,7,29,0.00
2013-1-23,21,14,7,0,-7,-12,72,39,28,0.00,40.00,10,3,20,0.00
2013-1-24,25,16,7,6,-3,-12,86,50,20,0.00,40.00,12,4,25,0.00
2013-1-25,26,18,10,16,0,-9,88,49,31,0.00,40.00,7,2,19,0.00
2013-1-26,27,18,6,14,4,-1,89,60,31,0.00,40.00,10,3,18,0.00
2013-1-27,18,12,8,11,3,-1,85,67,43,0.00,40.00,6,1,12,0.00
2013-1-28,36,34,28,34,30,19,95,87,65,0.00,40.00,6,1,14,0.00
2013-1-29,54,43,33,45,37,32,95,83,49,0.00,40.00,3,1,9,0.00
2013-1-30,68,56,43,56,49,42,94,80,57,0.00,40.00,9,3,28,0.00
2013-1-31,62,41,30,58,14,2,88,34,23,0.00,40.00,17,9,35,0.00
2013-2-1,31,28,24,10,1,-100,45,31,24,0.00,40.00,13,5,29,0.00
2013-2-2,31,24,17,18,0,-3,76,36,23,0.00,40.00,7,2,16,0.00
2013-2-3,31,26,21,23,18,13,92,73,50,0.00,40.00,6,2,12,0.00
2013-2-4,30,26,21,23,7,1,87,47,29,0.00,40.00,10,4,23,0.00
2013-2-5,34,31,27,30,26,15,92,83,59,0.00,40.00,6,2,9,0.00
2013-2-6,41,33,28,30,19,8,94,61,31,0.00,40.00,10,3,22,0.00
2013-2-7,37,29,20,25,12,7,75,52,39,0.00,40.00,6,2,13,0.00
2013-2-8,41,37,31,40,34,27,94,89,72,0.00,40.00,17,7,34,0.00
2013-2-9,34,29,22,29,14,-2,95,60,27,0.00,40.00,15,8,34,0.00
2013-2-10,39,25,10,20,5,-3,80,46,17,0.00,40.00,6,2,17,0.00
2013-2-11,53,44,30,52,41,20,94,89,67,0.00,40.00,8,2,21,0.00
2013-2-12,48,41,30,46,20,13,92,46,27,0.00,40.00,12,5,26,0.00
2013-2-13,42,33,24,32,22,16,94,68,34,0.00,40.00,6,1,12,0.00
2013-2-14,46,37,31,36,29,20,95,78,35,0.00,40.00,5,2,10,0.00
2013-2-15,57,42,30,39,28,20,95,65,24,0.00,40.00,7,1,18,0.00
2013-2-16,44,37,33,33,24,10,87,61,37,0.00,40.00,10,5,23,0.00
2013-2-17,33,29,20,13,0,-8,45,29,21,0.00,40.00,15,9,33,0.00
2013-2-18,36,25,18,4,-3,-8,34,29,22,0.00,40.00,14,5,30,0.00
2013-2-19,47,37,27,44,27,4,94,70,35,0.00,40.00,7,3,22,0.00
2013-2-20,40,31,26,26,7,1,58,36,27,0.00,40.00,11,7,27,0.00
2013-2-21,36,30,23,7,5,1,42,34,28,0.00,40.00,14,8,33,0.00
2013-2-22,38,31,22,31,17,5,80,57,41,0.00,40.00,7,2,14,0.00
2013-2-23,46,41,36,44,39,32,94,93,84,0.00,40.00,13,4,22,0.00
2013-2-24,50,40,32,39,28,14,94,67,34,0.00,40.00,11,6,26,0.00
2013-2-25,45,36,27,23,18,14,69,50,34,0.00,40.00,8,2,13,0.00
2013-2-26,46,35,26,37,27,23,92,73,41,0.00,40.00,12,3,29,0.00
2013-2-27,53,46,39,50,40,31,95,82,48,0.00,40.00,12,5,28,0.00
2013-2-28,49,43,38,38,29,19,87,60,37,0.00,40.00,8,2,17,0.00
2013-3-1,46,39,32,30,24,18,88,57,33,0.00,40.00,5,0,21,0.00
2013-3-2,42,36,31,19,17,15,54,45,36,0.00,40.00,11,3,19,0.00
2013-3-3,39,33,28,17,14,12,55,45,36,0.00,40.00,11,5,26,0.00
2013-3-4,42,34,27,14,12,10,51,41,31,0.00,40.00,12,6,29,0.00
2013-3-5,48,37,29,25,18,14,81,47,31,0.00,40.00,9,3,17,0.00
2013-3-6,40,38,30,36,30,-100,90,77,64,0.00,40.00,21,11,42,0.00
2013-3-7,41,36,33,34,30,25,94,78,61,0.00,40.00,16,9,30,0.00
2013-3-8,41,34,31,34,30,-100,95,89,51,0.00,40.00,11,6,22,0.00
2013-3-9,56,41,31,23,14,-100,67,39,12,0.00,40.00,10,4,19,0.00
2013-3-10,49,35,26,34,28,22,94,76,43,0.00,40.00,6,1,13,0.00
2013-3-11,59,44,31,47,38,30,95,82,45,0.00,40.00,6,2,14,0.00
2013-3-12,57,53,47,55,49,34,94,86,70,0.00,40.00,10,4,24,0.00
2013-3-13,52,43,35,37,25,13,80,52,23,0.00,40.00,9,4,22,0.00
2013-3-14,42,36,30,20,9,1,50,34,21,0.00,40.00,13,6,31,0.00
2013-3-15,49,39,28,17,10,1,40,31,24,0.00,40.00,7,3,21,0.00
2013-3-16,42,36,33,31,25,17,93,65,37,0.00,40.00,6,2,12,0.00
2013-3-17,39,34,28,32,18,7,94,57,30,0.00,40.00,10,3,19,0.00
2013-3-18,40,34,27,37,21,7,94,61,38,0.00,40.00,8,4,22,0.00
2013-3-19,48,41,38,39,33,9,95,78,29,0.00,40.00,12,6,25,0.00
2013-3-20,47,40,30,15,10,6,45,30,19,0.00,40.00,12,4,26,0.00
2013-3-21,38,34,30,26,17,5,78,51,30,0.00,40.00,7,0,14,0.00
2013-3-22,42,34,27,16,12,7,56,40,28,0.00,40.00,11,2,27,0.00
2013-3-23,48,38,28,17,14,10,58,38,25,0.00,40.00,16,4,28,0.00
2013-3-24,47,38,25,23,15,11,69,41,26,0.00,40.00,11,2,18,0.00
2013-3-25,37,37,37,24,24,23,58,58,57,0.00,40.00,2,1,4,0.00
2013-3-26,52,41,31,39,26,17,95,62,28,0.00,40.00,9,3,16,0.00
2013-3-27,53,43,33,26,21,14,65,43,23,0.00,40.00,11,5,22,0.00
2013-3-28,51,43,31,28,23,20,82,48,31,0.00,40.00,10,4,20,0.00
2013-3-29,56,45,30,29,21,17,86,43,22,0.00,40.00,10,3,19,0.00
2013-3-30,58,45,29,36,20,11,92,45,16,0.00,40.00,6,1,15,0.00
2013-3-31,57,45,32,45,31,20,94,63,26,0.00,40.00,8,2,23,0.00
2013-4-1,63,49,41,47,35,7,94,64,25,0.00,40.00,13,3,30,0.00
2013-4-2,44,38,27,11,6,3,49,28,19,0.00,40.00,13,5,29,0.00
2013-4-3,46,39,30,9,6,2,34,25,18,0.00,40.00,12,5,25,0.00
2013-4-4,55,40,27,19,12,1,46,32,19,0.00,40.00,7,2,15,0.00
2013-4-5,63,48,38,39,21,6,93,45,11,0.00,40.00,12,4,23,0.00
2013-4-6,52,42,35,24,12,6,63,31,17,0.00,40.00,12,4,26,0.00
2013-4-7,61,48,32,40,30,24,79,54,26,0.00,40.00,10,2,23,0.00
2013-4-8,65,53,46,44,41,37,85,65,36,0.00,40.00,4,1,13,0.00
2013-5-15,67,67,67,38,38,38,34,34,34,0.00,40.00,0,0,0,0.00
2013-5-16,67,62,67,38,19,-100,34,34,34,0.00,40.00,77,7,241,0.00
2013-5-17,67,66,67,38,35,-100,34,34,34,0.00,40.00,12,12,241,0.00
2013-5-18,67,67,67,38,38,38,34,34,34,0.00,40.00,12,12,241,0.00
2013-6-25,83,72,67,70,65,62,93,80,53,0.00,40.00,1,0,9,0.00
2013-7-1,74,73,73,71,71,71,93,92,92,0.00,40.00,5,2,12,0.00
2013-7-19,98,89,83,73,70,67,72,55,37,0.00,40.00,1,0,8,0.00
2013-7-20,87,80,77,73,71,69,80,74,58,0.00,40.00,1,0,8,0.00
2013-7-22,77,75,74,74,73,72,93,93,92,0.00,40.00,0,0,6,0.00
2013-7-23,90,77,72,76,71,66,93,83,46,0.00,40.00,3,1,10,0.00
2013-7-24,79,72,69,71,66,56,92,84,55,0.00,40.00,2,0,7,0.00
2013-7-25,69,66,64,58,54,48,79,65,49,0.00,40.00,9,5,17,0.00
2013-7-26,77,68,64,65,59,56,89,75,53,0.00,40.00,7,3,12,0.00
2013-7-27,79,67,63,69,63,61,93,87,55,0.00,40.00,2,0,7,0.00
2013-7-28,82,69,63,71,65,61,93,87,55,0.00,40.00,3,0,10,0.00